Tracking 19281 objects as of 16-Nov-2018
HD Live streaming from Space Station
objects crossing your sky now

IRIDIUM 59

Track IRIDIUM 59 now!
10-day predictions
IRIDIUM 59 is classified as:


NORAD ID: 25275
Int'l Code: 1998-019D
Perigee: 783.3 km
Apogee: 786.3 km
Inclination: 86.4 °
Period: 100.4 minutes
Semi major axis: 7155 km
RCS: 4.0396 m2 (large)
Launch date: March 30, 1998
Source: United States (US)
Launch site: AIR FORCE WESTERN TEST RANGE (AFWTR)
aabbcc
Your satellite tracking list
Your tracking list is empty




NASA's NSSDC Master Catalog

Two Line Element Set (TLE):
1 25275U 98019D   18320.37019633  .00000152  00000-0  47138-4 0  9999
2 25275  86.3974  71.2034 0002053 101.1583 258.9843 14.34216686 80194
Source of the keplerian elements: AFSPC